Home > Weather > Carlisle > Past weeks

Flag for United Kingdom Past Weather in Carlisle, England, United Kingdom — Yesterday and Last 2 Weeks

Now
56 °F

Cool.


Feels Like: N/A
Forecast: 43 / 64 °F
Wind: N/A

Location: Carlisle

Current Time: May 29, 2016 at 10:51:12 AM

Latest Report: May 29, 2016 at 10:00 AM


Visibility: 14 mi

Pressure: 30.02 "Hg

Humidity: 70%

Dew Point: 46 °F

Location of CarlisleLocation

Past Weather in Carlisle — Graph

°F

Carlisle Temperature Yesterday

Maximum temperature yesterday: 64 °F (at 6:00 PM)
Minimum temperature yesterday: 46 °F (at 5:00 AM)
Average temperature yesterday: 55 °F

High & Low Weather Summary for the Past Weeks

 TemperatureHumidityPressure
High65 °F (May 23, 4:00 PM)100% (May 23, 6:00 AM)30.27 "Hg (May 23, 6:00 AM)
Low38 °F (May 16, 6:00 AM)43% (May 15, 5:00 PM)29.50 "Hg (May 18, 7:00 AM)
Average53 °F75%29.96 "Hg
* Reported May 14 9:00 AM — May 29 9:00 AM, Carlisle, Weather by CustomWeather, © 2016

Note: Actual official high and low records may vary slightly from our data, if they occured in-between our weather recording intervals... More about our weather records

Advertising

Carlisle Weather History for the Previous 24 Hours

Scroll right to see more
 ConditionsComfort  
Time TempWeatherWind HumidityBarometerVisibility
9:00 AM
Sun, May 29
54 °FCool.N/A74%30.02 "Hg14 mi
8:00 AM52 °FCool.N/A84%30.02 "Hg12 mi
7:00 AM48 °FCool.N/A88%30.01 "Hg13 mi
6:00 AM45 °FCool.N/A95%30.01 "Hg8 mi
5:00 AM44 °FQuite cool.N/A95%30.01 "Hg7 mi
4:00 AM45 °FCool.N/A93%30.01 "Hg7 mi
3:00 AM47 °FCool.N/A91%30.00 "Hg8 mi
2:00 AM48 °FCool.N/A91%30.01 "Hg10 mi
12:00 AM49 °FCool.N/A89%30.02 "Hg12 mi
11:00 PM
Sat, May 28
51 °FCool.N/A85%30.01 "Hg14 mi
10:00 PM53 °FCool.N/A81%30.00 "Hg15 mi
9:00 PM58 °FCool.N/A70%29.98 "Hg16 mi
8:00 PM61 °FCool.N/A63%29.98 "Hg16 mi
7:00 PM63 °FMild.N/A51%29.98 "Hg17 mi
6:00 PM64 °FMild.N/A50%29.98 "Hg22 mi
5:00 PM64 °FMild.N/A50%29.99 "Hg22 mi
4:00 PM64 °FMild.N/A53%30.01 "Hg22 mi
3:00 PM64 °FMild.N/A60%30.02 "Hg22 mi
2:00 PM61 °FRefreshingly cool.N/A55%30.03 "Hg17 mi
1:00 PM60 °FRefreshingly cool.N/A59%30.04 "Hg14 mi
12:00 PM58 °FCool.N/A64%30.05 "Hg16 mi
11:00 AM58 °FCool.N/A67%30.05 "Hg22 mi
10:00 AM56 °FCool.N/A72%30.06 "Hg17 mi
Weather by CustomWeather, © 2016

See weather overviewHow to use our weather pages